owner,sensor,date,latitude,longitude,relative_humidity,qcFlag 
COMPS,ioos:station:USF.COMPS:C13:1,2019-04-01T00:05:00Z,26.0630,-83.0730,75.49,1111122 
COMPS,ioos:station:USF.COMPS:C13:1,2019-04-01T00:35:00Z,26.0630,-83.0730,76.64,1111122 
COMPS,ioos:station:USF.COMPS:C13:1,2019-04-01T01:05:00Z,26.0630,-83.0730,77.17,1111122 
COMPS,ioos:station:USF.COMPS:C13:1,2019-04-01T01:35:00Z,26.0630,-83.0730,77.5,1111122 
COMPS,ioos:station:USF.COMPS:C13:1,2019-04-01T02:05:00Z,26.0630,-83.0730,77.56,1111122 
COMPS,ioos:station:USF.COMPS:C13:1,2019-04-01T02:35:00Z,26.0630,-83.0730,78.06,1111122 
COMPS,ioos:station:USF.COMPS:C13:1,2019-04-01T03:05:00Z,26.0630,-83.0730,78.23,1111122 
COMPS,ioos:station:USF.COMPS:C13:1,2019-04-01T03:35:00Z,26.0630,-83.0730,78.7,1111122 
COMPS,ioos:station:USF.COMPS:C13:1,2019-04-01T04:05:00Z,26.0630,-83.0730,79.65,1111122 
COMPS,ioos:station:USF.COMPS:C13:1,2019-04-01T04:35:00Z,26.0630,-83.0730,80.68,1111122 
COMPS,ioos:station:USF.COMPS:C13:1,2019-04-01T05:05:00Z,26.0630,-83.0730,81.13,1111122 
COMPS,ioos:station:USF.COMPS:C13:1,2019-04-01T05:35:00Z,26.0630,-83.0730,81.16,1111122 
COMPS,ioos:station:USF.COMPS:C13:1,2019-04-01T06:05:00Z,26.0630,-83.0730,80.36,1111122 
COMPS,ioos:station:USF.COMPS:C13:1,2019-04-01T06:35:00Z,26.0630,-83.0730,80.94,1111122 
COMPS,ioos:station:USF.COMPS:C13:1,2019-04-01T07:05:00Z,26.0630,-83.0730,80.44,1111122 
COMPS,ioos:station:USF.COMPS:C13:1,2019-04-01T07:35:00Z,26.0630,-83.0730,83.11,1111122 
COMPS,ioos:station:USF.COMPS:C13:1,2019-04-01T08:05:00Z,26.0630,-83.0730,83.12,1111122 
COMPS,ioos:station:USF.COMPS:C13:1,2019-04-01T08:35:00Z,26.0630,-83.0730,83.33,1111122 
COMPS,ioos:station:USF.COMPS:C13:1,2019-04-01T09:05:00Z,26.0630,-83.0730,83.68,1111122 
COMPS,ioos:station:USF.COMPS:C13:1,2019-04-01T09:35:00Z,26.0630,-83.0730,83.39,1111122 
COMPS,ioos:station:USF.COMPS:C13:1,2019-04-01T10:05:00Z,26.0630,-83.0730,82.91,1111122 
COMPS,ioos:station:USF.COMPS:C13:1,2019-04-01T10:35:00Z,26.0630,-83.0730,82.82,1111122 
COMPS,ioos:station:USF.COMPS:C13:1,2019-04-01T11:05:00Z,26.0630,-83.0730,82.9,1111122 
COMPS,ioos:station:USF.COMPS:C13:1,2019-04-01T11:35:00Z,26.0630,-83.0730,83.12,1111122 
COMPS,ioos:station:USF.COMPS:C13:1,2019-04-01T12:05:00Z,26.0630,-83.0730,82.42,1111122 
COMPS,ioos:station:USF.COMPS:C13:1,2019-04-01T12:35:00Z,26.0630,-83.0730,82.42,1111122 
COMPS,ioos:station:USF.COMPS:C13:1,2019-04-01T13:05:00Z,26.0630,-83.0730,80.91,1111122 
COMPS,ioos:station:USF.COMPS:C13:1,2019-04-01T13:35:00Z,26.0630,-83.0730,79.78,1111122 
COMPS,ioos:station:USF.COMPS:C13:1,2019-04-01T14:05:00Z,26.0630,-83.0730,78.32,1111122 
COMPS,ioos:station:USF.COMPS:C13:1,2019-04-01T14:35:00Z,26.0630,-83.0730,78.17,1111122 
COMPS,ioos:station:USF.COMPS:C13:1,2019-04-01T15:05:00Z,26.0630,-83.0730,77.93,1111122 
COMPS,ioos:station:USF.COMPS:C13:1,2019-04-01T15:35:00Z,26.0630,-83.0730,78.68,1111122 
COMPS,ioos:station:USF.COMPS:C13:1,2019-04-01T16:05:00Z,26.0630,-83.0730,77.64,1111122 
COMPS,ioos:station:USF.COMPS:C13:1,2019-04-01T16:35:00Z,26.0630,-83.0730,78.93,1111122 
COMPS,ioos:station:USF.COMPS:C13:1,2019-04-01T17:05:00Z,26.0630,-83.0730,78.95,1111122 
COMPS,ioos:station:USF.COMPS:C13:1,2019-04-01T17:35:00Z,26.0630,-83.0730,75.58,1111122 
COMPS,ioos:station:USF.COMPS:C13:1,2019-04-01T18:05:00Z,26.0630,-83.0730,74.22,1111122 
COMPS,ioos:station:USF.COMPS:C13:1,2019-04-01T18:35:00Z,26.0630,-83.0730,74.41,1111122 
COMPS,ioos:station:USF.COMPS:C13:1,2019-04-01T19:05:00Z,26.0630,-83.0730,74.69,1111122 
COMPS,ioos:station:USF.COMPS:C13:1,2019-04-01T19:35:00Z,26.0630,-83.0730,72.42,1111122 
COMPS,ioos:station:USF.COMPS:C13:1,2019-04-01T20:05:00Z,26.0630,-83.0730,73.17,1111122 
COMPS,ioos:station:USF.COMPS:C13:1,2019-04-01T20:35:00Z,26.0630,-83.0730,72.32,1111122 
COMPS,ioos:station:USF.COMPS:C13:1,2019-04-01T21:05:00Z,26.0630,-83.0730,71.94,1111122 
COMPS,ioos:station:USF.COMPS:C13:1,2019-04-01T21:35:00Z,26.0630,-83.0730,73.2,1111122 
COMPS,ioos:station:USF.COMPS:C13:1,2019-04-01T22:05:00Z,26.0630,-83.0730,75.15,1111122 
COMPS,ioos:station:USF.COMPS:C13:1,2019-04-01T22:35:00Z,26.0630,-83.0730,75.03,1111122 
COMPS,ioos:station:USF.COMPS:C13:1,2019-04-01T23:05:00Z,26.0630,-83.0730,76.63,1111122 
COMPS,ioos:station:USF.COMPS:C13:1,2019-04-01T23:35:00Z,26.0630,-83.0730,76.44,1111122 
COMPS,ioos:station:USF.COMPS:C13:1,2019-04-02T00:05:00Z,26.0630,-83.0730,77.02,1111122 
COMPS,ioos:station:USF.COMPS:C13:1,2019-04-02T00:35:00Z,26.0630,-83.0730,76.52,1111122 
COMPS,ioos:station:USF.COMPS:C13:1,2019-04-02T01:05:00Z,26.0630,-83.0730,76.68,1111122 
COMPS,ioos:station:USF.COMPS:C13:1,2019-04-02T01:35:00Z,26.0630,-83.0730,77.81,1111122 
COMPS,ioos:station:USF.COMPS:C13:1,2019-04-02T02:05:00Z,26.0630,-83.0730,78.13,1111122 
COMPS,ioos:station:USF.COMPS:C13:1,2019-04-02T02:35:00Z,26.0630,-83.0730,79.5,1111122 
COMPS,ioos:station:USF.COMPS:C13:1,2019-04-02T03:05:00Z,26.0630,-83.0730,80.71,1111122 
COMPS,ioos:station:USF.COMPS:C13:1,2019-04-02T03:35:00Z,26.0630,-83.0730,81.37,1111122 
COMPS,ioos:station:USF.COMPS:C13:1,2019-04-02T04:05:00Z,26.0630,-83.0730,82.11,1111122 
COMPS,ioos:station:USF.COMPS:C13:1,2019-04-02T04:35:00Z,26.0630,-83.0730,82.83,1111122 
COMPS,ioos:station:USF.COMPS:C13:1,2019-04-02T05:05:00Z,26.0630,-83.0730,84.56,1111122 
COMPS,ioos:station:USF.COMPS:C13:1,2019-04-02T05:35:00Z,26.0630,-83.0730,85.64,1111122 
COMPS,ioos:station:USF.COMPS:C13:1,2019-04-02T06:05:00Z,26.0630,-83.0730,86.42,1111122 
COMPS,ioos:station:USF.COMPS:C13:1,2019-04-02T06:35:00Z,26.0630,-83.0730,87.33,1111122 
COMPS,ioos:station:USF.COMPS:C13:1,2019-04-02T07:05:00Z,26.0630,-83.0730,88.5,1111122 
COMPS,ioos:station:USF.COMPS:C13:1,2019-04-02T07:35:00Z,26.0630,-83.0730,89.52,1111122 
COMPS,ioos:station:USF.COMPS:C13:1,2019-04-02T08:05:00Z,26.0630,-83.0730,89.86,1111122 
COMPS,ioos:station:USF.COMPS:C13:1,2019-04-02T08:35:00Z,26.0630,-83.0730,90.03,1111122 
COMPS,ioos:station:USF.COMPS:C13:1,2019-04-02T09:05:00Z,26.0630,-83.0730,90.43,1111122 
COMPS,ioos:station:USF.COMPS:C13:1,2019-04-02T09:35:00Z,26.0630,-83.0730,90.13,1111122 
COMPS,ioos:station:USF.COMPS:C13:1,2019-04-02T10:05:00Z,26.0630,-83.0730,89.83,1111122 
COMPS,ioos:station:USF.COMPS:C13:1,2019-04-02T10:35:00Z,26.0630,-83.0730,89.5,1111122 
COMPS,ioos:station:USF.COMPS:C13:1,2019-04-02T11:05:00Z,26.0630,-83.0730,89.73,1111122 
COMPS,ioos:station:USF.COMPS:C13:1,2019-04-02T11:35:00Z,26.0630,-83.0730,89.78,1111122 
COMPS,ioos:station:USF.COMPS:C13:1,2019-04-02T12:05:00Z,26.0630,-83.0730,89.83,1111122 
COMPS,ioos:station:USF.COMPS:C13:1,2019-04-02T12:35:00Z,26.0630,-83.0730,89.77,1111122 
COMPS,ioos:station:USF.COMPS:C13:1,2019-04-02T13:05:00Z,26.0630,-83.0730,89.54,1111122 
COMPS,ioos:station:USF.COMPS:C13:1,2019-04-02T13:35:00Z,26.0630,-83.0730,85.32,1111122 
COMPS,ioos:station:USF.COMPS:C13:1,2019-04-02T14:05:00Z,26.0630,-83.0730,85.34,1111122 
COMPS,ioos:station:USF.COMPS:C13:1,2019-04-02T14:35:00Z,26.0630,-83.0730,86.08,1111122 
COMPS,ioos:station:USF.COMPS:C13:1,2019-04-02T15:05:00Z,26.0630,-83.0730,86.28,1111122 
COMPS,ioos:station:USF.COMPS:C13:1,2019-04-02T15:35:00Z,26.0630,-83.0730,86.91,1111122 
COMPS,ioos:station:USF.COMPS:C13:1,2019-04-02T16:05:00Z,26.0630,-83.0730,86.53,1111122 
COMPS,ioos:station:USF.COMPS:C13:1,2019-04-02T16:35:00Z,26.0630,-83.0730,87.27,1111122 
COMPS,ioos:station:USF.COMPS:C13:1,2019-04-02T17:05:00Z,26.0630,-83.0730,87.94,1111122 
COMPS,ioos:station:USF.COMPS:C13:1,2019-04-02T17:35:00Z,26.0630,-83.0730,88.6,1111122 
COMPS,ioos:station:USF.COMPS:C13:1,2019-04-02T18:05:00Z,26.0630,-83.0730,88.25,1111122 
COMPS,ioos:station:USF.COMPS:C13:1,2019-04-02T18:35:00Z,26.0630,-83.0730,86.77,1111122 
COMPS,ioos:station:USF.COMPS:C13:1,2019-04-02T19:05:00Z,26.0630,-83.0730,87.13,1111122 
COMPS,ioos:station:USF.COMPS:C13:1,2019-04-02T19:35:00Z,26.0630,-83.0730,88.33,1111122 
COMPS,ioos:station:USF.COMPS:C13:1,2019-04-02T20:05:00Z,26.0630,-83.0730,87.08,1111122 
COMPS,ioos:station:USF.COMPS:C13:1,2019-04-02T20:35:00Z,26.0630,-83.0730,84.49,1111122 
COMPS,ioos:station:USF.COMPS:C13:1,2019-04-02T21:05:00Z,26.0630,-83.0730,82.57,1111122 
COMPS,ioos:station:USF.COMPS:C13:1,2019-04-02T21:35:00Z,26.0630,-83.0730,84.36,1111122 
COMPS,ioos:station:USF.COMPS:C13:1,2019-04-02T22:05:00Z,26.0630,-83.0730,85.87,1111122 
COMPS,ioos:station:USF.COMPS:C13:1,2019-04-02T22:35:00Z,26.0630,-83.0730,86.32,1111122 
COMPS,ioos:station:USF.COMPS:C13:1,2019-04-02T23:05:00Z,26.0630,-83.0730,85.9,1111122 
COMPS,ioos:station:USF.COMPS:C13:1,2019-04-02T23:35:00Z,26.0630,-83.0730,84.9,1111122 
COMPS,ioos:station:USF.COMPS:C13:1,2019-04-03T00:05:00Z,26.0630,-83.0730,84.86,1111122 
COMPS,ioos:station:USF.COMPS:C13:1,2019-04-03T00:35:00Z,26.0630,-83.0730,85.09,1111122 
COMPS,ioos:station:USF.COMPS:C13:1,2019-04-03T01:05:00Z,26.0630,-83.0730,84.98,1111122 
COMPS,ioos:station:USF.COMPS:C13:1,2019-04-03T01:35:00Z,26.0630,-83.0730,84.88,1111122 
COMPS,ioos:station:USF.COMPS:C13:1,2019-04-03T02:05:00Z,26.0630,-83.0730,84.53,1111122 
COMPS,ioos:station:USF.COMPS:C13:1,2019-04-03T02:35:00Z,26.0630,-83.0730,83.05,1111122 
COMPS,ioos:station:USF.COMPS:C13:1,2019-04-03T03:05:00Z,26.0630,-83.0730,81.45,1111122 
COMPS,ioos:station:USF.COMPS:C13:1,2019-04-03T03:35:00Z,26.0630,-83.0730,80.04,1111122 
COMPS,ioos:station:USF.COMPS:C13:1,2019-04-03T04:05:00Z,26.0630,-83.0730,78.72,1111122 
COMPS,ioos:station:USF.COMPS:C13:1,2019-04-03T04:35:00Z,26.0630,-83.0730,77.19,1111122 
COMPS,ioos:station:USF.COMPS:C13:1,2019-04-03T05:05:00Z,26.0630,-83.0730,76.77,1111122 
COMPS,ioos:station:USF.COMPS:C13:1,2019-04-03T05:35:00Z,26.0630,-83.0730,76.83,1111122 
COMPS,ioos:station:USF.COMPS:C13:1,2019-04-03T06:05:00Z,26.0630,-83.0730,76.57,1111122 
COMPS,ioos:station:USF.COMPS:C13:1,2019-04-03T06:35:00Z,26.0630,-83.0730,76.43,1111122 
COMPS,ioos:station:USF.COMPS:C13:1,2019-04-03T07:05:00Z,26.0630,-83.0730,75.5,1111122 
COMPS,ioos:station:USF.COMPS:C13:1,2019-04-03T07:35:00Z,26.0630,-83.0730,72.17,1111122 
COMPS,ioos:station:USF.COMPS:C13:1,2019-04-03T08:05:00Z,26.0630,-83.0730,69.04,1111122 
COMPS,ioos:station:USF.COMPS:C13:1,2019-04-03T08:35:00Z,26.0630,-83.0730,68.2,1111122 
COMPS,ioos:station:USF.COMPS:C13:1,2019-04-03T10:05:00Z,26.0630,-83.0730,76.3,1111122 
COMPS,ioos:station:USF.COMPS:C13:1,2019-04-03T10:35:00Z,26.0630,-83.0730,78.97,1111122 
COMPS,ioos:station:USF.COMPS:C13:1,2019-04-03T11:05:00Z,26.0630,-83.0730,79.57,1111122 
COMPS,ioos:station:USF.COMPS:C13:1,2019-04-03T11:35:00Z,26.0630,-83.0730,76.68,1111122 
COMPS,ioos:station:USF.COMPS:C13:1,2019-04-03T12:05:00Z,26.0630,-83.0730,81.75,1111122 
COMPS,ioos:station:USF.COMPS:C13:1,2019-04-03T12:35:00Z,26.0630,-83.0730,82.75,1111122 
COMPS,ioos:station:USF.COMPS:C13:1,2019-04-03T13:05:00Z,26.0630,-83.0730,84.79,1111122 
COMPS,ioos:station:USF.COMPS:C13:1,2019-04-03T13:35:00Z,26.0630,-83.0730,85.88,1111122 
COMPS,ioos:station:USF.COMPS:C13:1,2019-04-03T14:05:00Z,26.0630,-83.0730,86.04,1111122 
COMPS,ioos:station:USF.COMPS:C13:1,2019-04-03T14:35:00Z,26.0630,-83.0730,85.39,1111122 
COMPS,ioos:station:USF.COMPS:C13:1,2019-04-03T15:05:00Z,26.0630,-83.0730,84.25,1111122 
COMPS,ioos:station:USF.COMPS:C13:1,2019-04-03T15:35:00Z,26.0630,-83.0730,83.02,1111122 
COMPS,ioos:station:USF.COMPS:C13:1,2019-04-03T16:05:00Z,26.0630,-83.0730,82.79,1111122 
COMPS,ioos:station:USF.COMPS:C13:1,2019-04-03T16:35:00Z,26.0630,-83.0730,82.08,1111122 
COMPS,ioos:station:USF.COMPS:C13:1,2019-04-03T17:05:00Z,26.0630,-83.0730,81.51,1111122 
COMPS,ioos:station:USF.COMPS:C13:1,2019-04-03T17:35:00Z,26.0630,-83.0730,81.84,1111122 
COMPS,ioos:station:USF.COMPS:C13:1,2019-04-03T18:05:00Z,26.0630,-83.0730,81.93,1111122 
COMPS,ioos:station:USF.COMPS:C13:1,2019-04-03T18:35:00Z,26.0630,-83.0730,81.09,1111122 
COMPS,ioos:station:USF.COMPS:C13:1,2019-04-03T19:05:00Z,26.0630,-83.0730,81.12,1111122 
COMPS,ioos:station:USF.COMPS:C13:1,2019-04-03T19:35:00Z,26.0630,-83.0730,80.43,1111122 
COMPS,ioos:station:USF.COMPS:C13:1,2019-04-03T21:05:00Z,26.0630,-83.0730,79.47,1111122 
COMPS,ioos:station:USF.COMPS:C13:1,2019-04-03T21:35:00Z,26.0630,-83.0730,78.96,1111122 
COMPS,ioos:station:USF.COMPS:C13:1,2019-04-03T22:05:00Z,26.0630,-83.0730,78.88,1111122 
COMPS,ioos:station:USF.COMPS:C13:1,2019-04-03T22:35:00Z,26.0630,-83.0730,78.77,1111122 
COMPS,ioos:station:USF.COMPS:C13:1,2019-04-03T23:05:00Z,26.0630,-83.0730,79.46,1111122 
COMPS,ioos:station:USF.COMPS:C13:1,2019-04-03T23:35:00Z,26.0630,-83.0730,79.76,1111122 
COMPS,ioos:station:USF.COMPS:C13:1,2019-04-04T00:05:00Z,26.0630,-83.0730,80.85,1111122 
COMPS,ioos:station:USF.COMPS:C13:1,2019-04-04T00:35:00Z,26.0630,-83.0730,82.19,1111122 
COMPS,ioos:station:USF.COMPS:C13:1,2019-04-04T01:05:00Z,26.0630,-83.0730,83.0,1111122 
COMPS,ioos:station:USF.COMPS:C13:1,2019-04-04T01:35:00Z,26.0630,-83.0730,83.81,1111122 
COMPS,ioos:station:USF.COMPS:C13:1,2019-04-04T02:05:00Z,26.0630,-83.0730,84.9,1111122 
COMPS,ioos:station:USF.COMPS:C13:1,2019-04-04T02:35:00Z,26.0630,-83.0730,85.41,1111122 
COMPS,ioos:station:USF.COMPS:C13:1,2019-04-04T03:05:00Z,26.0630,-83.0730,82.14,1111122 
COMPS,ioos:station:USF.COMPS:C13:1,2019-04-04T03:35:00Z,26.0630,-83.0730,82.31,1111122 
COMPS,ioos:station:USF.COMPS:C13:1,2019-04-04T04:05:00Z,26.0630,-83.0730,83.14,1111122 
COMPS,ioos:station:USF.COMPS:C13:1,2019-04-04T04:35:00Z,26.0630,-83.0730,82.89,1111122 
COMPS,ioos:station:USF.COMPS:C13:1,2019-04-04T05:05:00Z,26.0630,-83.0730,84.98,1111122 
COMPS,ioos:station:USF.COMPS:C13:1,2019-04-04T05:35:00Z,26.0630,-83.0730,85.48,1111122 
COMPS,ioos:station:USF.COMPS:C13:1,2019-04-04T06:05:00Z,26.0630,-83.0730,86.59,1111122 
COMPS,ioos:station:USF.COMPS:C13:1,2019-04-04T06:35:00Z,26.0630,-83.0730,86.7,1111122 
COMPS,ioos:station:USF.COMPS:C13:1,2019-04-04T07:05:00Z,26.0630,-83.0730,86.63,1111122 
COMPS,ioos:station:USF.COMPS:C13:1,2019-04-04T07:35:00Z,26.0630,-83.0730,86.8,1111122 
COMPS,ioos:station:USF.COMPS:C13:1,2019-04-04T08:05:00Z,26.0630,-83.0730,87.15,1111122 
COMPS,ioos:station:USF.COMPS:C13:1,2019-04-04T08:35:00Z,26.0630,-83.0730,87.41,1111122 
COMPS,ioos:station:USF.COMPS:C13:1,2019-04-04T09:05:00Z,26.0630,-83.0730,87.42,1111122 
COMPS,ioos:station:USF.COMPS:C13:1,2019-04-04T09:35:00Z,26.0630,-83.0730,87.49,1111122 
COMPS,ioos:station:USF.COMPS:C13:1,2019-04-04T10:05:00Z,26.0630,-83.0730,87.67,1111122 
COMPS,ioos:station:USF.COMPS:C13:1,2019-04-04T10:35:00Z,26.0630,-83.0730,87.91,1111122 
COMPS,ioos:station:USF.COMPS:C13:1,2019-04-04T11:05:00Z,26.0630,-83.0730,88.18,1111122 
COMPS,ioos:station:USF.COMPS:C13:1,2019-04-04T11:35:00Z,26.0630,-83.0730,88.68,1111122 
COMPS,ioos:station:USF.COMPS:C13:1,2019-04-04T12:05:00Z,26.0630,-83.0730,88.46,1111122 
COMPS,ioos:station:USF.COMPS:C13:1,2019-04-04T12:35:00Z,26.0630,-83.0730,88.34,1111122 
COMPS,ioos:station:USF.COMPS:C13:1,2019-04-04T13:05:00Z,26.0630,-83.0730,88.45,1111122 
COMPS,ioos:station:USF.COMPS:C13:1,2019-04-04T13:35:00Z,26.0630,-83.0730,88.98,1111122 
COMPS,ioos:station:USF.COMPS:C13:1,2019-04-04T14:05:00Z,26.0630,-83.0730,89.13,1111122 
COMPS,ioos:station:USF.COMPS:C13:1,2019-04-04T14:35:00Z,26.0630,-83.0730,89.42,1111122 
COMPS,ioos:station:USF.COMPS:C13:1,2019-04-04T15:05:00Z,26.0630,-83.0730,89.41,1111122 
COMPS,ioos:station:USF.COMPS:C13:1,2019-04-04T15:35:00Z,26.0630,-83.0730,89.56,1111122 
COMPS,ioos:station:USF.COMPS:C13:1,2019-04-04T16:05:00Z,26.0630,-83.0730,90.13,1111122 
COMPS,ioos:station:USF.COMPS:C13:1,2019-04-04T16:35:00Z,26.0630,-83.0730,90.42,1111122 
COMPS,ioos:station:USF.COMPS:C13:1,2019-04-04T17:05:00Z,26.0630,-83.0730,90.71,1111122 
COMPS,ioos:station:USF.COMPS:C13:1,2019-04-04T17:35:00Z,26.0630,-83.0730,91.16,1111122 
COMPS,ioos:station:USF.COMPS:C13:1,2019-04-04T18:05:00Z,26.0630,-83.0730,91.33,1111122 
COMPS,ioos:station:USF.COMPS:C13:1,2019-04-04T18:35:00Z,26.0630,-83.0730,91.23,1111122 
COMPS,ioos:station:USF.COMPS:C13:1,2019-04-04T19:05:00Z,26.0630,-83.0730,90.54,1111122 
COMPS,ioos:station:USF.COMPS:C13:1,2019-04-04T19:35:00Z,26.0630,-83.0730,90.14,1111122 
COMPS,ioos:station:USF.COMPS:C13:1,2019-04-04T20:05:00Z,26.0630,-83.0730,90.11,1111122 
COMPS,ioos:station:USF.COMPS:C13:1,2019-04-04T20:35:00Z,26.0630,-83.0730,90.21,1111122 
COMPS,ioos:station:USF.COMPS:C13:1,2019-04-04T21:05:00Z,26.0630,-83.0730,88.93,1111122 
COMPS,ioos:station:USF.COMPS:C13:1,2019-04-04T21:35:00Z,26.0630,-83.0730,88.82,1111122 
COMPS,ioos:station:USF.COMPS:C13:1,2019-04-04T22:05:00Z,26.0630,-83.0730,89.18,1111122 
COMPS,ioos:station:USF.COMPS:C13:1,2019-04-04T22:35:00Z,26.0630,-83.0730,89.05,1111122 
COMPS,ioos:station:USF.COMPS:C13:1,2019-04-04T23:05:00Z,26.0630,-83.0730,89.51,1111122 
COMPS,ioos:station:USF.COMPS:C13:1,2019-04-04T23:35:00Z,26.0630,-83.0730,89.75,1111122 
COMPS,ioos:station:USF.COMPS:C13:1,2019-04-05T00:05:00Z,26.0630,-83.0730,89.81,1111122 
COMPS,ioos:station:USF.COMPS:C13:1,2019-04-05T00:35:00Z,26.0630,-83.0730,89.31,1111122 
COMPS,ioos:station:USF.COMPS:C13:1,2019-04-05T01:05:00Z,26.0630,-83.0730,89.69,1111122 
COMPS,ioos:station:USF.COMPS:C13:1,2019-04-05T01:35:00Z,26.0630,-83.0730,90.22,1111122 
COMPS,ioos:station:USF.COMPS:C13:1,2019-04-05T02:05:00Z,26.0630,-83.0730,90.55,1111122 
COMPS,ioos:station:USF.COMPS:C13:1,2019-04-05T02:35:00Z,26.0630,-83.0730,89.84,1111122 
COMPS,ioos:station:USF.COMPS:C13:1,2019-04-05T03:05:00Z,26.0630,-83.0730,89.49,1111122 
COMPS,ioos:station:USF.COMPS:C13:1,2019-04-05T03:35:00Z,26.0630,-83.0730,90.13,1111122 
COMPS,ioos:station:USF.COMPS:C13:1,2019-04-05T04:05:00Z,26.0630,-83.0730,90.91,1111122 
COMPS,ioos:station:USF.COMPS:C13:1,2019-04-05T04:35:00Z,26.0630,-83.0730,91.38,1111122 
COMPS,ioos:station:USF.COMPS:C13:1,2019-04-05T05:05:00Z,26.0630,-83.0730,91.12,1111122 
COMPS,ioos:station:USF.COMPS:C13:1,2019-04-05T05:35:00Z,26.0630,-83.0730,90.78,1111122 
COMPS,ioos:station:USF.COMPS:C13:1,2019-04-05T06:05:00Z,26.0630,-83.0730,91.26,1111122 
COMPS,ioos:station:USF.COMPS:C13:1,2019-04-05T06:35:00Z,26.0630,-83.0730,91.6,1111122 
COMPS,ioos:station:USF.COMPS:C13:1,2019-04-05T07:05:00Z,26.0630,-83.0730,92.02,1111122 
COMPS,ioos:station:USF.COMPS:C13:1,2019-04-05T07:35:00Z,26.0630,-83.0730,92.53,1111122 
COMPS,ioos:station:USF.COMPS:C13:1,2019-04-05T08:05:00Z,26.0630,-83.0730,92.96,1111122 
COMPS,ioos:station:USF.COMPS:C13:1,2019-04-05T08:35:00Z,26.0630,-83.0730,93.6,1111122 
COMPS,ioos:station:USF.COMPS:C13:1,2019-04-05T09:05:00Z,26.0630,-83.0730,93.93,1111122 
COMPS,ioos:station:USF.COMPS:C13:1,2019-04-05T09:35:00Z,26.0630,-83.0730,94.19,1111122 
COMPS,ioos:station:USF.COMPS:C13:1,2019-04-05T10:05:00Z,26.0630,-83.0730,94.2,1111122 
COMPS,ioos:station:USF.COMPS:C13:1,2019-04-05T10:35:00Z,26.0630,-83.0730,94.11,1111122 
COMPS,ioos:station:USF.COMPS:C13:1,2019-04-05T11:05:00Z,26.0630,-83.0730,94.03,1111122 
COMPS,ioos:station:USF.COMPS:C13:1,2019-04-05T11:35:00Z,26.0630,-83.0730,94.06,1111122 
COMPS,ioos:station:USF.COMPS:C13:1,2019-04-05T12:05:00Z,26.0630,-83.0730,94.18,1111122 
COMPS,ioos:station:USF.COMPS:C13:1,2019-04-05T12:35:00Z,26.0630,-83.0730,94.0,1111122 
COMPS,ioos:station:USF.COMPS:C13:1,2019-04-05T13:05:00Z,26.0630,-83.0730,93.69,1111122 
COMPS,ioos:station:USF.COMPS:C13:1,2019-04-05T13:35:00Z,26.0630,-83.0730,93.39,1111122 
COMPS,ioos:station:USF.COMPS:C13:1,2019-04-05T14:05:00Z,26.0630,-83.0730,93.36,1111122 
COMPS,ioos:station:USF.COMPS:C13:1,2019-04-05T14:35:00Z,26.0630,-83.0730,93.27,1111122 
COMPS,ioos:station:USF.COMPS:C13:1,2019-04-05T15:05:00Z,26.0630,-83.0730,93.31,1111122 
COMPS,ioos:station:USF.COMPS:C13:1,2019-04-05T15:35:00Z,26.0630,-83.0730,93.39,1111122 
COMPS,ioos:station:USF.COMPS:C13:1,2019-04-05T16:05:00Z,26.0630,-83.0730,93.57,1111122 
COMPS,ioos:station:USF.COMPS:C13:1,2019-04-05T16:35:00Z,26.0630,-83.0730,93.56,1111122 
COMPS,ioos:station:USF.COMPS:C13:1,2019-04-05T17:05:00Z,26.0630,-83.0730,93.57,1111122 
COMPS,ioos:station:USF.COMPS:C13:1,2019-04-05T17:35:00Z,26.0630,-83.0730,93.24,1111122 
COMPS,ioos:station:USF.COMPS:C13:1,2019-04-05T18:05:00Z,26.0630,-83.0730,92.72,1111122 
COMPS,ioos:station:USF.COMPS:C13:1,2019-04-05T18:35:00Z,26.0630,-83.0730,92.34,1111122 
COMPS,ioos:station:USF.COMPS:C13:1,2019-04-05T19:05:00Z,26.0630,-83.0730,92.32,1111122 
COMPS,ioos:station:USF.COMPS:C13:1,2019-04-05T19:35:00Z,26.0630,-83.0730,92.42,1111122 
COMPS,ioos:station:USF.COMPS:C13:1,2019-04-05T20:05:00Z,26.0630,-83.0730,92.39,1111122 
COMPS,ioos:station:USF.COMPS:C13:1,2019-04-05T20:35:00Z,26.0630,-83.0730,92.24,1111122 
COMPS,ioos:station:USF.COMPS:C13:1,2019-04-05T21:05:00Z,26.0630,-83.0730,92.32,1111122 
COMPS,ioos:station:USF.COMPS:C13:1,2019-04-05T21:35:00Z,26.0630,-83.0730,92.6,1111122 
COMPS,ioos:station:USF.COMPS:C13:1,2019-04-05T22:05:00Z,26.0630,-83.0730,92.67,1111122 
COMPS,ioos:station:USF.COMPS:C13:1,2019-04-05T22:35:00Z,26.0630,-83.0730,92.71,1111122 
COMPS,ioos:station:USF.COMPS:C13:1,2019-04-05T23:05:00Z,26.0630,-83.0730,92.47,1111122 
COMPS,ioos:station:USF.COMPS:C13:1,2019-04-05T23:35:00Z,26.0630,-83.0730,92.11,1111122 
COMPS,ioos:station:USF.COMPS:C13:1,2019-04-06T00:05:00Z,26.0630,-83.0730,92.27,1111122 
COMPS,ioos:station:USF.COMPS:C13:1,2019-04-06T00:35:00Z,26.0630,-83.0730,92.56,1111122 
COMPS,ioos:station:USF.COMPS:C13:1,2019-04-06T01:05:00Z,26.0630,-83.0730,92.84,1111122 
COMPS,ioos:station:USF.COMPS:C13:1,2019-04-06T01:35:00Z,26.0630,-83.0730,93.17,1111122 
COMPS,ioos:station:USF.COMPS:C13:1,2019-04-06T02:05:00Z,26.0630,-83.0730,93.39,1111122 
COMPS,ioos:station:USF.COMPS:C13:1,2019-04-06T02:35:00Z,26.0630,-83.0730,93.58,1111122 
COMPS,ioos:station:USF.COMPS:C13:1,2019-04-06T03:05:00Z,26.0630,-83.0730,93.79,1111122 
COMPS,ioos:station:USF.COMPS:C13:1,2019-04-06T03:35:00Z,26.0630,-83.0730,94.01,1111122 
COMPS,ioos:station:USF.COMPS:C13:1,2019-04-06T04:05:00Z,26.0630,-83.0730,94.08,1111122 
COMPS,ioos:station:USF.COMPS:C13:1,2019-04-06T04:35:00Z,26.0630,-83.0730,93.74,1111122 
COMPS,ioos:station:USF.COMPS:C13:1,2019-04-06T05:05:00Z,26.0630,-83.0730,93.63,1111122 
COMPS,ioos:station:USF.COMPS:C13:1,2019-04-06T05:35:00Z,26.0630,-83.0730,93.92,1111122 
COMPS,ioos:station:USF.COMPS:C13:1,2019-04-06T06:05:00Z,26.0630,-83.0730,93.94,1111122 
COMPS,ioos:station:USF.COMPS:C13:1,2019-04-06T06:35:00Z,26.0630,-83.0730,93.56,1111122 
COMPS,ioos:station:USF.COMPS:C13:1,2019-04-06T07:05:00Z,26.0630,-83.0730,93.17,1111122 
COMPS,ioos:station:USF.COMPS:C13:1,2019-04-06T07:35:00Z,26.0630,-83.0730,92.84,1111122 
COMPS,ioos:station:USF.COMPS:C13:1,2019-04-06T08:05:00Z,26.0630,-83.0730,92.68,1111122 
COMPS,ioos:station:USF.COMPS:C13:1,2019-04-06T08:35:00Z,26.0630,-83.0730,92.5,1111122 
COMPS,ioos:station:USF.COMPS:C13:1,2019-04-06T09:05:00Z,26.0630,-83.0730,92.27,1111122 
COMPS,ioos:station:USF.COMPS:C13:1,2019-04-06T09:35:00Z,26.0630,-83.0730,91.71,1111122 
COMPS,ioos:station:USF.COMPS:C13:1,2019-04-06T10:05:00Z,26.0630,-83.0730,91.51,1111122 
COMPS,ioos:station:USF.COMPS:C13:1,2019-04-06T10:35:00Z,26.0630,-83.0730,92.04,1111122 
COMPS,ioos:station:USF.COMPS:C13:1,2019-04-06T11:05:00Z,26.0630,-83.0730,92.51,1111122 
COMPS,ioos:station:USF.COMPS:C13:1,2019-04-06T11:35:00Z,26.0630,-83.0730,92.01,1111122 
COMPS,ioos:station:USF.COMPS:C13:1,2019-04-06T12:05:00Z,26.0630,-83.0730,91.17,1111122 
COMPS,ioos:station:USF.COMPS:C13:1,2019-04-06T12:35:00Z,26.0630,-83.0730,91.14,1111122 
COMPS,ioos:station:USF.COMPS:C13:1,2019-04-06T13:05:00Z,26.0630,-83.0730,90.88,1111122 
COMPS,ioos:station:USF.COMPS:C13:1,2019-04-06T13:35:00Z,26.0630,-83.0730,90.84,1111122 
COMPS,ioos:station:USF.COMPS:C13:1,2019-04-06T14:05:00Z,26.0630,-83.0730,91.21,1111122 
COMPS,ioos:station:USF.COMPS:C13:1,2019-04-06T14:35:00Z,26.0630,-83.0730,92.1,1111122 
COMPS,ioos:station:USF.COMPS:C13:1,2019-04-06T15:05:00Z,26.0630,-83.0730,92.06,1111122 
COMPS,ioos:station:USF.COMPS:C13:1,2019-04-06T15:35:00Z,26.0630,-83.0730,91.23,1111122 
COMPS,ioos:station:USF.COMPS:C13:1,2019-04-06T16:05:00Z,26.0630,-83.0730,91.08,1111122 
COMPS,ioos:station:USF.COMPS:C13:1,2019-04-06T16:35:00Z,26.0630,-83.0730,90.71,1111122 
COMPS,ioos:station:USF.COMPS:C13:1,2019-04-06T17:05:00Z,26.0630,-83.0730,91.74,1111122 
COMPS,ioos:station:USF.COMPS:C13:1,2019-04-06T17:35:00Z,26.0630,-83.0730,91.83,1111122 